Auburn-Lewiston, ME

6:59 PM EDT on July 27, 2017 (GMT -0400)
Auburn-Lewiston Municipal

Weather History for KLEW - August, 2014

Change the Weather History Date:

Friday, August 15, 2014

  Actual Average Record
Temperature  
Mean Temperature 58 °F -  
Max Temperature 68 °F 76 °F 96 °F (2002)
Min Temperature 48 °F 54 °F 46 °F (1997)
Degree Days  
Heating Degree Days 7    
Growing Degree Days 8 (Base 50)    
Moisture  
Dew Point 52 °F    
Average Humidity 76    
Maximum Humidity 93    
Minimum Humidity 60    
Precipitation  
Precipitation 0.00 in - - ()
Sea Level Pressure  
Sea Level Pressure 29.86 in    
Wind  
Wind Speed 2 mph (SSW)    
Max Wind Speed 8 mph    
Max Gust Speed -    
Visibility 10 miles    
Events      
Averages and records for this station are not official NWS values.
T = Trace of Precipitation, MM = Missing Value Source: NWS Daily Summary

Daily Weather History Graph

Daily Weather History Graph

Search for Another Location

Airport or City:

Trip Planner

Search our weather history database for the weather conditions in past years. The results will help you decide how hot, cold, wet, or windy it might be!

Date:

Astronomy

Aug. 15, 2014 Rise Set
Actual Time 5:44 AM EDT 7:45 PM EDT
Civil Twilight 5:13 AM EDT 8:16 PM EDT
Nautical Twilight 4:34 AM EDT 8:55 PM EDT
Astronomical Twilight 3:52 AM EDT 9:37 PM EDT
Moon 10:31 PM EDT (8/15) 11:37 AM EDT (8/15)
Length of Visible Light 15h 03m
Length of Day
14h 00m
Waning Gibbous, 69% of the Moon is Illuminated
Aug 15
Waning Gibbous
Aug 17
Last Quarter
Aug 25
New
Sep 2
First Quarter
Sep 8
Full

Hourly Weather History & Observations

Time (EDT) Temp. Dew Point Humidity Pressure Visibility Wind Dir Wind Speed Gust Speed Precip Events Conditions
12:15 AM 55.4 °F 50.0 °F 82% 29.86 in 10.0 mi Calm Calm - N/A   Clear
12:35 AM 55.4 °F 51.8 °F 88% 29.86 in 10.0 mi North 3.5 mph - N/A   Clear
12:55 AM 53.6 °F 50.0 °F 88% 29.86 in 10.0 mi Calm Calm - N/A   Clear
1:15 AM 53.6 °F 50.0 °F 88% 29.86 in 10.0 mi Calm Calm - N/A   Clear
1:35 AM 53.6 °F 48.2 °F 82% 29.86 in 10.0 mi Calm Calm - N/A   Clear
1:55 AM 51.8 °F 48.2 °F 88% 29.86 in 10.0 mi Calm Calm - N/A   Clear
2:15 AM 51.8 °F 48.2 °F 88% 29.86 in 10.0 mi Calm Calm - N/A   Clear
2:35 AM 51.8 °F 48.2 °F 88% 29.85 in 10.0 mi North 3.5 mph - N/A   Clear
2:55 AM 51.8 °F 48.2 °F 88% 29.85 in 10.0 mi Calm Calm - N/A   Clear
3:15 AM 51.8 °F 48.2 °F 88% 29.86 in 10.0 mi North 3.5 mph - N/A   Clear
3:35 AM 51.8 °F 48.2 °F 88% 29.85 in 10.0 mi Calm Calm - N/A   Clear
3:55 AM 51.8 °F 46.4 °F 82% 29.85 in 10.0 mi Calm Calm - N/A   Clear
4:15 AM 51.8 °F 46.4 °F 82% 29.84 in 10.0 mi Calm Calm - N/A   Clear
4:35 AM 48.2 °F 46.4 °F 93% 29.85 in 10.0 mi Calm Calm - N/A   Clear
4:55 AM 50.0 °F 46.4 °F 87% 29.86 in 10.0 mi Calm Calm - N/A   Clear
5:15 AM 50.0 °F 46.4 °F 87% 29.86 in 10.0 mi Calm Calm - N/A   Clear
5:35 AM 50.0 °F 46.4 °F 87% 29.86 in 10.0 mi Calm Calm - N/A   Clear
5:55 AM 51.8 °F 46.4 °F 82% 29.86 in 10.0 mi Calm Calm - N/A   Partly Cloudy
6:15 AM 51.8 °F 46.4 °F 82% 29.86 in 10.0 mi North 3.5 mph - N/A   Mostly Cloudy
6:35 AM 51.8 °F 48.2 °F 88% 29.87 in 10.0 mi Calm Calm - N/A   Overcast
6:55 AM 51.8 °F 48.2 °F 88% 29.87 in 10.0 mi Calm Calm - N/A   Overcast
7:15 AM 51.8 °F 48.2 °F 88% 29.87 in 10.0 mi North 3.5 mph - N/A   Overcast
7:35 AM 53.6 °F 48.2 °F 82% 29.88 in 10.0 mi North 4.6 mph - N/A   Overcast
7:55 AM 53.6 °F 50.0 °F 88% 29.87 in 10.0 mi North 3.5 mph - N/A   Overcast
8:15 AM 55.4 °F 51.8 °F 88% 29.87 in 10.0 mi North 4.6 mph - N/A   Overcast
8:35 AM 55.4 °F 51.8 °F 88% 29.87 in 10.0 mi Calm Calm - N/A   Overcast
8:55 AM 57.2 °F 51.8 °F 82% 29.87 in 10.0 mi Calm Calm - N/A   Overcast
9:15 AM 57.2 °F 51.8 °F 82% 29.88 in 10.0 mi Calm Calm - N/A   Overcast
9:35 AM 59.0 °F 53.6 °F 82% 29.88 in 10.0 mi Calm Calm - N/A   Overcast
9:55 AM 60.8 °F 53.6 °F 77% 29.88 in 10.0 mi Calm Calm - N/A   Overcast
10:15 AM 62.6 °F 53.6 °F 72% 29.88 in 10.0 mi Calm Calm - N/A   Overcast
10:35 AM 62.6 °F 53.6 °F 72% 29.88 in 10.0 mi Calm Calm - N/A   Overcast
10:55 AM 62.6 °F 55.4 °F 77% 29.87 in 10.0 mi Calm Calm - N/A   Overcast
11:15 AM 64.4 °F 55.4 °F 73% 29.87 in 10.0 mi South 4.6 mph - N/A   Overcast
11:35 AM 64.4 °F 55.4 °F 73% 29.87 in 10.0 mi Calm Calm - N/A   Overcast
11:55 AM 64.4 °F 55.4 °F 73% 29.87 in 10.0 mi South 3.5 mph - N/A   Overcast
12:15 PM 64.4 °F 55.4 °F 73% 29.87 in 10.0 mi SE 3.5 mph - N/A   Mostly Cloudy
12:35 PM 66.2 °F 55.4 °F 68% 29.86 in 10.0 mi Calm Calm - N/A   Overcast
12:55 PM 66.2 °F 53.6 °F 64% 29.86 in 10.0 mi Calm Calm - N/A   Overcast
1:15 PM 66.2 °F 53.6 °F 64% 29.86 in 10.0 mi SW 3.5 mph - N/A   Mostly Cloudy
1:35 PM 66.2 °F 51.8 °F 60% 29.85 in 10.0 mi WSW 4.6 mph - N/A   Overcast
1:55 PM 66.2 °F 53.6 °F 64% 29.85 in 10.0 mi West 5.8 mph - N/A   Overcast
2:15 PM 66.2 °F 53.6 °F 64% 29.84 in 10.0 mi Calm Calm - N/A   Overcast
2:35 PM 66.2 °F 51.8 °F 60% 29.84 in 10.0 mi Calm Calm - N/A   Overcast
2:55 PM 68.0 °F 53.6 °F 60% 29.84 in 10.0 mi Calm Calm - N/A   Overcast
3:15 PM 66.2 °F 53.6 °F 64% 29.84 in 10.0 mi SE 5.8 mph - N/A   Mostly Cloudy
3:35 PM 66.2 °F 55.4 °F 68% 29.84 in 10.0 mi South 6.9 mph - N/A   Overcast
3:55 PM 66.2 °F 55.4 °F 68% 29.84 in 10.0 mi SSE 6.9 mph - N/A   Overcast
4:15 PM 66.2 °F 55.4 °F 68% 29.84 in 10.0 mi SSW 5.8 mph - N/A   Mostly Cloudy
4:35 PM 66.2 °F 53.6 °F 64% 29.84 in 10.0 mi SSE 6.9 mph - N/A   Mostly Cloudy
4:55 PM 66.2 °F 55.4 °F 68% 29.84 in 10.0 mi SSE 5.8 mph - N/A   Overcast
5:15 PM 68.0 °F 55.4 °F 64% 29.83 in 10.0 mi South 4.6 mph - N/A   Mostly Cloudy
5:35 PM 68.0 °F 53.6 °F 60% 29.83 in 10.0 mi Calm Calm - N/A   Mostly Cloudy
5:55 PM 66.2 °F 55.4 °F 68% 29.83 in 10.0 mi SW 8.1 mph - N/A   Overcast
6:15 PM 66.2 °F 51.8 °F 60% 29.84 in 10.0 mi West 5.8 mph - N/A   Mostly Cloudy
6:35 PM 66.2 °F 51.8 °F 60% 29.84 in 10.0 mi WSW 6.9 mph - N/A   Mostly Cloudy
6:55 PM 66.2 °F 51.8 °F 60% 29.84 in 10.0 mi SW 4.6 mph - N/A   Mostly Cloudy
7:15 PM 66.2 °F 51.8 °F 60% 29.84 in 10.0 mi WSW 4.6 mph - N/A   Mostly Cloudy
7:35 PM 64.4 °F 51.8 °F 64% 29.84 in 10.0 mi SSW 3.5 mph - N/A   Scattered Clouds
7:55 PM 62.6 °F 53.6 °F 72% 29.85 in 10.0 mi SSW 3.5 mph - N/A   Mostly Cloudy
8:15 PM 60.8 °F 53.6 °F 77% 29.86 in 10.0 mi SSW 3.5 mph - N/A   Overcast
8:35 PM 60.8 °F 51.8 °F 72% 29.86 in 10.0 mi Calm Calm - N/A   Overcast
8:55 PM 60.8 °F 51.8 °F 72% 29.86 in 10.0 mi Calm Calm - N/A   Overcast
9:15 PM 60.8 °F 51.8 °F 72% 29.86 in 10.0 mi Calm Calm - N/A   Overcast
9:35 PM 60.8 °F 53.6 °F 77% 29.86 in 10.0 mi SSE 4.6 mph - N/A   Overcast
9:55 PM 60.8 °F 51.8 °F 72% 29.86 in 10.0 mi Calm Calm - N/A   Overcast
10:15 PM 59.0 °F 53.6 °F 82% 29.87 in 10.0 mi South 3.5 mph - N/A   Overcast
10:35 PM 60.8 °F 51.8 °F 72% 29.86 in 10.0 mi Calm Calm - N/A   Overcast
10:55 PM 59.0 °F 51.8 °F 77% 29.86 in 10.0 mi Calm Calm - N/A   Overcast
11:15 PM 57.2 °F 53.6 °F 88% 29.86 in 10.0 mi South 3.5 mph - N/A   Overcast
11:35 PM 57.2 °F 53.6 °F 88% 29.86 in 10.0 mi Calm Calm - N/A   Overcast
11:55 PM 57.2 °F 51.8 °F 82% 29.86 in 10.0 mi South 3.5 mph - N/A   Overcast